Time,TemperatureF,DewpointF,PressureIn,WindDirection,WindDirectionDegrees,WindSpeedMPH,WindSpeedGustMPH,Humidity,HourlyPrecipIn,Conditions,Clouds,dailyrainin,SoftwareType,DateUTC
2013-04-19 00:03:00,46.0,43.0,29.87,SSE,150,2.0,5.0,90,0.02,,,1.73,,2013-04-19 05:03:00,
2013-04-19 00:11:00,46.0,43.0,29.87,SSE,150,2.0,5.0,90,0.02,,,1.73,,2013-04-19 05:11:00,
2013-04-19 00:22:00,46.0,43.0,29.88,ESE,120,0.0,4.0,90,0.01,,,1.73,,2013-04-19 05:22:00,
2013-04-19 00:32:00,46.0,44.0,29.87,SW,219,0.0,3.0,91,0.01,,,1.74,,2013-04-19 05:32:00,
2013-04-19 00:42:00,46.0,44.0,29.87,SW,219,0.0,3.0,91,0.01,,,1.74,,2013-04-19 05:42:00,
2013-04-19 00:52:00,46.0,44.0,29.88,WSW,243,0.0,2.0,92,0.01,,,1.74,,2013-04-19 05:52:00,
2013-04-19 01:01:00,46.0,44.0,29.87,SSE,148,0.0,3.0,92,0.01,,,1.74,,2013-04-19 06:01:00,
2013-04-19 01:11:00,46.0,44.0,29.87,SSE,148,0.0,3.0,92,0.01,,,1.74,,2013-04-19 06:11:00,
2013-04-19 01:22:00,46.0,43.0,29.88,SE,141,1.0,4.0,90,0.01,,,1.74,,2013-04-19 06:22:00,
2013-04-19 01:32:00,45.0,42.0,29.90,South,171,1.0,6.0,88,0.00,,,1.74,,2013-04-19 06:32:00,
2013-04-19 01:42:00,45.0,42.0,29.90,South,171,1.0,6.0,88,0.00,,,1.74,,2013-04-19 06:42:00,
2013-04-19 01:53:00,45.0,41.0,29.90,SSW,210,0.0,5.0,87,0.00,,,1.74,,2013-04-19 06:53:00,
2013-04-19 02:02:00,45.0,41.0,29.90,SSE,150,1.0,3.0,86,0.00,,,1.74,,2013-04-19 07:02:00,
2013-04-19 02:12:00,45.0,41.0,29.90,SSE,150,1.0,3.0,86,0.00,,,1.74,,2013-04-19 07:12:00,
2013-04-19 02:21:00,45.0,41.0,29.90,SW,233,1.0,6.0,85,0.00,,,1.74,,2013-04-19 07:21:00,
2013-04-19 02:32:00,45.0,40.0,29.91,SSW,197,1.0,6.0,83,0.00,,,1.74,,2013-04-19 07:32:00,
2013-04-19 02:42:00,45.0,40.0,29.91,SSW,197,1.0,6.0,83,0.00,,,1.74,,2013-04-19 07:42:00,
2013-04-19 02:52:00,44.0,38.0,29.91,WSW,245,1.0,7.0,80,0.00,,,1.74,,2013-04-19 07:52:00,
2013-04-19 03:02:00,44.0,38.0,29.91,SSW,208,1.0,4.0,80,0.00,,,1.74,,2013-04-19 08:02:00,
2013-04-19 03:12:00,44.0,38.0,29.91,SSW,208,1.0,4.0,80,0.00,,,1.74,,2013-04-19 08:12:00,
2013-04-19 03:21:00,44.0,38.0,29.92,SW,226,0.0,3.0,79,0.00,,,1.74,,2013-04-19 08:21:00,
2013-04-19 03:32:00,44.0,38.0,29.92,WSW,238,1.0,4.0,79,0.00,,,1.74,,2013-04-19 08:32:00,
2013-04-19 03:42:00,44.0,38.0,29.92,WSW,238,1.0,4.0,79,0.00,,,1.74,,2013-04-19 08:42:00,
2013-04-19 03:52:00,44.0,38.0,29.93,SSW,208,1.0,4.0,80,0.00,,,1.74,,2013-04-19 08:52:00,
2013-04-19 04:01:00,44.0,36.0,29.93,SSW,212,2.0,5.0,74,0.00,,,1.74,,2013-04-19 09:01:00,
2013-04-19 04:11:00,44.0,36.0,29.93,SSW,212,2.0,5.0,74,0.00,,,1.74,,2013-04-19 09:11:00,
2013-04-19 04:21:00,44.0,37.0,29.93,WSW,243,0.0,2.0,75,0.00,,,1.74,,2013-04-19 09:21:00,
2013-04-19 04:32:00,44.0,36.0,29.93,SSW,204,3.0,8.0,73,0.00,,,1.74,,2013-04-19 09:32:00,
2013-04-19 04:42:00,44.0,36.0,29.93,SSW,204,3.0,8.0,73,0.00,,,1.74,,2013-04-19 09:42:00,
2013-04-19 04:52:00,44.0,35.0,29.93,ESE,115,1.0,6.0,71,0.00,,,1.74,,2013-04-19 09:52:00,
2013-04-19 05:02:00,44.0,35.0,29.93,WSW,257,1.0,5.0,71,0.00,,,1.74,,2013-04-19 10:02:00,
2013-04-19 05:13:00,44.0,35.0,29.94,SW,229,1.0,8.0,71,0.00,,,1.74,,2013-04-19 10:13:00,
2013-04-19 05:23:00,44.0,35.0,29.94,SW,229,1.0,8.0,71,0.00,,,1.74,,2013-04-19 10:23:00,
2013-04-19 05:33:00,44.0,35.0,29.94,SSW,195,0.0,4.0,70,0.00,,,1.74,,2013-04-19 10:33:00,
2013-04-19 05:42:00,44.0,35.0,29.94,SSW,195,0.0,4.0,70,0.00,,,1.74,,2013-04-19 10:42:00,
2013-04-19 05:52:00,44.0,34.0,29.95,SSE,164,1.0,5.0,69,0.00,,,1.74,,2013-04-19 10:52:00,
2013-04-19 06:02:00,44.0,35.0,29.97,South,191,0.0,4.0,70,0.00,,,1.74,,2013-04-19 11:02:00,
2013-04-19 06:11:00,44.0,35.0,29.97,South,191,0.0,4.0,70,0.00,,,1.74,,2013-04-19 11:11:00,
2013-04-19 06:22:00,44.0,35.0,29.98,SW,215,1.0,6.0,71,0.00,,,1.74,,2013-04-19 11:22:00,
2013-04-19 06:32:00,44.0,35.0,29.98,SSE,149,0.0,5.0,71,0.00,,,1.74,,2013-04-19 11:32:00,
2013-04-19 06:42:00,44.0,35.0,29.98,SSE,149,0.0,5.0,71,0.00,,,1.74,,2013-04-19 11:42:00,
2013-04-19 06:52:00,44.0,35.0,29.99,SE,128,2.0,4.0,70,0.00,,,1.74,,2013-04-19 11:52:00,
2013-04-19 07:02:00,44.0,34.0,30.00,SSW,200,0.0,3.0,69,0.00,,,1.74,,2013-04-19 12:02:00,
2013-04-19 07:12:00,44.0,34.0,30.00,SSW,200,0.0,3.0,69,0.00,,,1.74,,2013-04-19 12:12:00,
2013-04-19 07:22:00,44.0,35.0,30.00,SW,229,0.0,2.0,70,0.00,,,1.74,,2013-04-19 12:22:00,
2013-04-19 07:32:00,44.0,34.0,30.01,SSE,155,0.0,2.0,69,0.00,,,1.74,,2013-04-19 12:32:00,
2013-04-19 07:42:00,44.0,34.0,30.01,SSE,155,0.0,2.0,69,0.00,,,1.74,,2013-04-19 12:42:00,
2013-04-19 07:53:00,44.0,34.0,30.01,SSW,197,0.0,3.0,69,0.00,,,1.74,,2013-04-19 12:53:00,
2013-04-19 08:01:00,44.0,34.0,30.01,SSW,195,3.0,6.0,68,0.00,,,1.74,,2013-04-19 13:01:00,
2013-04-19 08:11:00,44.0,34.0,30.01,SSW,195,3.0,6.0,68,0.00,,,1.74,,2013-04-19 13:11:00,
2013-04-19 08:21:00,44.0,35.0,30.02,WSW,250,1.0,6.0,70,0.00,,,1.74,,2013-04-19 13:21:00,
2013-04-19 08:32:00,44.0,34.0,30.02,WSW,245,3.0,6.0,67,0.00,,,1.74,,2013-04-19 13:32:00,
2013-04-19 08:42:00,44.0,34.0,30.02,WSW,245,3.0,6.0,67,0.00,,,1.74,,2013-04-19 13:42:00,
2013-04-19 08:52:00,45.0,34.0,30.03,SW,215,2.0,7.0,66,0.00,,,1.74,,2013-04-19 13:52:00,
2013-04-19 09:01:00,45.0,34.0,30.02,NE,47,1.0,11.0,64,0.00,,,1.74,,2013-04-19 14:01:00,
2013-04-19 09:11:00,45.0,34.0,30.02,NE,47,1.0,11.0,64,0.00,,,1.74,,2013-04-19 14:11:00,
2013-04-19 09:22:00,45.0,33.0,30.03,WSW,243,2.0,10.0,63,0.00,,,1.74,,2013-04-19 14:22:00,
2013-04-19 09:32:00,45.0,33.0,30.03,SW,233,2.0,8.0,63,0.00,,,1.74,,2013-04-19 14:32:00,
2013-04-19 09:42:00,45.0,33.0,30.03,SW,233,2.0,8.0,63,0.00,,,1.74,,2013-04-19 14:42:00,
2013-04-19 09:52:00,45.0,34.0,30.03,SSW,207,0.0,4.0,65,0.00,,,1.74,,2013-04-19 14:52:00,
2013-04-19 10:01:00,46.0,34.0,30.04,SW,231,1.0,4.0,63,0.00,,,1.74,,2013-04-19 15:01:00,
2013-04-19 10:12:00,46.0,34.0,30.04,SW,231,1.0,4.0,63,0.00,,,1.74,,2013-04-19 15:12:00,
2013-04-19 10:21:00,45.0,33.0,30.05,SW,231,0.0,5.0,63,0.00,,,1.74,,2013-04-19 15:21:00,
2013-04-19 10:33:00,45.0,33.0,30.07,WSW,255,3.0,7.0,62,0.00,,,1.74,,2013-04-19 15:33:00,
2013-04-19 10:43:00,45.0,33.0,30.07,WSW,255,3.0,7.0,62,0.00,,,1.74,,2013-04-19 15:43:00,
2013-04-19 10:52:00,45.0,33.0,30.08,ESE,119,2.0,6.0,62,0.00,,,1.74,,2013-04-19 15:52:00,
2013-04-19 11:03:00,45.0,32.0,30.08,WSW,240,1.0,6.0,59,0.00,,,1.74,,2013-04-19 16:03:00,
2013-04-19 11:13:00,45.0,32.0,30.08,WSW,240,1.0,6.0,59,0.00,,,1.74,,2013-04-19 16:13:00,
2013-04-19 11:23:00,46.0,32.0,30.09,South,189,0.0,5.0,59,0.00,,,1.74,,2013-04-19 16:23:00,
2013-04-19 11:32:00,47.0,33.0,30.09,SW,233,1.0,8.0,57,0.00,,,1.74,,2013-04-19 16:32:00,
2013-04-19 11:42:00,47.0,33.0,30.09,SW,233,1.0,8.0,57,0.00,,,1.74,,2013-04-19 16:42:00,
2013-04-19 11:53:00,47.0,32.0,30.09,SW,214,1.0,5.0,56,0.00,,,1.74,,2013-04-19 16:53:00,
2013-04-19 12:02:00,48.0,34.0,30.08,SW,225,1.0,6.0,57,0.00,,,1.74,,2013-04-19 17:02:00,
2013-04-19 12:12:00,48.0,34.0,30.08,SW,225,1.0,6.0,57,0.00,,,1.74,,2013-04-19 17:12:00,
2013-04-19 12:21:00,49.0,33.0,30.07,SW,231,0.0,9.0,54,0.00,,,1.74,,2013-04-19 17:21:00,
2013-04-19 12:33:00,50.0,33.0,30.07,SSE,163,1.0,6.0,51,0.00,,,1.74,,2013-04-19 17:33:00,
2013-04-19 12:42:00,50.0,33.0,30.07,SSE,163,1.0,6.0,51,0.00,,,1.74,,2013-04-19 17:42:00,
2013-04-19 12:52:00,50.0,33.0,30.07,SSW,198,2.0,5.0,51,0.00,,,1.74,,2013-04-19 17:52:00,
2013-04-19 13:01:00,50.0,33.0,30.07,SSE,148,1.0,7.0,52,0.00,,,1.74,,2013-04-19 18:01:00,
2013-04-19 13:13:00,50.0,33.0,30.07,SSE,148,1.0,7.0,52,0.00,,,1.74,,2013-04-19 18:13:00,
2013-04-19 13:23:00,52.0,33.0,30.07,SW,221,0.0,5.0,49,0.00,,,1.74,,2013-04-19 18:23:00,
2013-04-19 13:33:00,52.0,33.0,30.08,SE,129,2.0,5.0,49,0.00,,,1.74,,2013-04-19 18:33:00,
2013-04-19 13:43:00,52.0,33.0,30.08,SE,129,2.0,5.0,49,0.00,,,1.74,,2013-04-19 18:43:00,
2013-04-19 13:52:00,51.0,33.0,30.08,SSE,158,1.0,6.0,50,0.00,,,1.74,,2013-04-19 18:52:00,
2013-04-19 14:01:00,52.0,33.0,30.07,West,263,3.0,10.0,49,0.00,,,1.74,,2013-04-19 19:01:00,
2013-04-19 14:11:00,52.0,33.0,30.07,West,263,3.0,10.0,49,0.00,,,1.74,,2013-04-19 19:11:00,
2013-04-19 14:21:00,54.0,35.0,30.07,West,261,1.0,5.0,48,0.00,,,1.74,,2013-04-19 19:21:00,
2013-04-19 14:32:00,53.0,34.0,30.08,East,88,1.0,5.0,49,0.00,,,1.74,,2013-04-19 19:32:00,
2013-04-19 14:42:00,53.0,34.0,30.08,East,88,1.0,5.0,49,0.00,,,1.74,,2013-04-19 19:42:00,
2013-04-19 14:52:00,54.0,34.0,30.07,SW,235,2.0,5.0,46,0.00,,,1.74,,2013-04-19 19:52:00,
2013-04-19 15:02:00,53.0,33.0,30.08,SSW,201,3.0,10.0,47,0.00,,,1.74,,2013-04-19 20:02:00,
2013-04-19 15:11:00,53.0,33.0,30.08,SSW,201,3.0,10.0,47,0.00,,,1.74,,2013-04-19 20:11:00,
2013-04-19 15:22:00,53.0,35.0,30.07,SW,233,1.0,8.0,50,0.00,,,1.74,,2013-04-19 20:22:00,
2013-04-19 15:32:00,53.0,33.0,30.07,SSW,194,2.0,4.0,47,0.00,,,1.74,,2013-04-19 20:32:00,
2013-04-19 15:42:00,53.0,33.0,30.07,SSW,194,2.0,4.0,47,0.00,,,1.74,,2013-04-19 20:42:00,
2013-04-19 15:52:00,54.0,35.0,30.07,West,271,2.0,7.0,48,0.00,,,1.74,,2013-04-19 20:52:00,
2013-04-19 16:01:00,54.0,34.0,30.07,South,191,1.0,9.0,47,0.00,,,1.74,,2013-04-19 21:01:00,
2013-04-19 16:11:00,55.0,34.0,30.07,SW,221,1.0,8.0,45,0.00,,,1.74,,2013-04-19 21:11:00,
2013-04-19 16:21:00,55.0,34.0,30.07,SW,221,1.0,8.0,45,0.00,,,1.74,,2013-04-19 21:21:00,
2013-04-19 16:32:00,54.0,34.0,30.06,West,271,1.0,6.0,46,0.00,,,1.74,,2013-04-19 21:32:00,
2013-04-19 16:42:00,54.0,34.0,30.06,West,271,1.0,6.0,46,0.00,,,1.74,,2013-04-19 21:42:00,
2013-04-19 16:53:00,57.0,35.0,30.06,WSW,239,1.0,3.0,44,0.00,,,1.74,,2013-04-19 21:53:00,
2013-04-19 17:02:00,58.0,35.0,30.07,SSW,212,0.0,4.0,42,0.00,,,1.74,,2013-04-19 22:02:00,
2013-04-19 17:12:00,58.0,35.0,30.07,SSW,212,0.0,4.0,42,0.00,,,1.74,,2013-04-19 22:12:00,
2013-04-19 17:22:00,58.0,34.0,30.07,SE,134,1.0,7.0,41,0.00,,,1.74,,2013-04-19 22:22:00,
2013-04-19 17:33:00,57.0,34.0,30.06,West,259,1.0,6.0,42,0.00,,,1.74,,2013-04-19 22:33:00,
2013-04-19 17:42:00,57.0,34.0,30.06,West,259,1.0,6.0,42,0.00,,,1.74,,2013-04-19 22:42:00,
2013-04-19 17:52:00,57.0,34.0,30.07,WSW,239,1.0,6.0,41,0.00,,,1.74,,2013-04-19 22:52:00,
2013-04-19 18:02:00,57.0,34.0,30.07,SSE,163,2.0,7.0,41,0.00,,,1.74,,2013-04-19 23:02:00,
2013-04-19 18:11:00,57.0,34.0,30.07,SSE,163,2.0,7.0,41,0.00,,,1.74,,2013-04-19 23:11:00,
2013-04-19 18:22:00,55.0,34.0,30.07,SW,233,0.0,6.0,45,0.00,,,1.66,,2013-04-19 23:22:00,
2013-04-19 18:32:00,55.0,34.0,30.07,SSW,195,1.0,6.0,45,0.00,,,1.66,,2013-04-19 23:32:00,
2013-04-19 18:42:00,55.0,34.0,30.07,SSW,195,1.0,6.0,45,0.00,,,1.66,,2013-04-19 23:42:00,
2013-04-19 18:52:00,55.0,34.0,30.07,WSW,238,1.0,3.0,45,0.00,,,1.66,,2013-04-19 23:52:00,
2013-04-19 19:02:00,54.0,34.0,30.08,WSW,239,0.0,3.0,47,0.00,,,1.66,,2013-04-20 00:02:00,
2013-04-19 19:12:00,54.0,34.0,30.08,WSW,239,0.0,3.0,47,0.00,,,1.66,,2013-04-20 00:12:00,
2013-04-19 19:21:00,53.0,34.0,30.08,SW,221,0.0,1.0,49,0.00,,,1.38,,2013-04-20 00:21:00,
2013-04-19 19:32:00,53.0,34.0,30.09,ESE,105,0.0,1.0,48,0.00,,,1.38,,2013-04-20 00:32:00,
2013-04-19 19:41:00,53.0,34.0,30.09,ESE,105,0.0,1.0,48,0.00,,,1.38,,2013-04-20 00:41:00,
2013-04-19 19:52:00,52.0,34.0,30.09,SW,221,0.0,1.0,50,0.00,,,1.38,,2013-04-20 00:52:00,
2013-04-19 20:01:00,51.0,34.0,30.09,SW,221,0.0,0.0,53,0.00,,,1.38,,2013-04-20 01:01:00,
2013-04-19 20:11:00,51.0,34.0,30.09,SW,221,0.0,0.0,53,0.00,,,1.38,,2013-04-20 01:11:00,
2013-04-19 20:21:00,49.0,35.0,30.10,SW,221,0.0,0.0,58,0.00,,,0.78,,2013-04-20 01:21:00,
2013-04-19 20:32:00,48.0,36.0,30.10,SW,221,0.0,0.0,64,0.00,,,0.78,,2013-04-20 01:32:00,
2013-04-19 20:42:00,48.0,36.0,30.10,SW,221,0.0,0.0,64,0.00,,,0.78,,2013-04-20 01:42:00,
2013-04-19 20:52:00,46.0,36.0,30.11,SW,221,0.0,0.0,68,0.00,,,0.78,,2013-04-20 01:52:00,
2013-04-19 21:01:00,45.0,37.0,30.12,SW,221,0.0,0.0,72,0.00,,,0.78,,2013-04-20 02:01:00,
2013-04-19 21:11:00,45.0,37.0,30.12,SW,221,0.0,0.0,72,0.00,,,0.78,,2013-04-20 02:11:00,
2013-04-19 21:21:00,44.0,37.0,30.13,SW,221,0.0,0.0,76,0.00,,,0.45,,2013-04-20 02:21:00,
2013-04-19 21:32:00,43.0,37.0,30.13,SW,221,0.0,0.0,78,0.00,,,0.45,,2013-04-20 02:32:00,
2013-04-19 21:42:00,43.0,37.0,30.13,SW,221,0.0,0.0,78,0.00,,,0.45,,2013-04-20 02:42:00,
2013-04-19 21:52:00,43.0,39.0,30.14,SW,221,0.0,0.0,85,0.00,,,0.45,,2013-04-20 02:52:00,
2013-04-19 22:01:00,42.0,38.0,30.15,SW,221,0.0,0.0,86,0.00,,,0.45,,2013-04-20 03:01:00,
2013-04-19 22:11:00,42.0,38.0,30.15,SW,221,0.0,0.0,86,0.00,,,0.45,,2013-04-20 03:11:00,
2013-04-19 22:21:00,42.0,38.0,30.15,SW,221,0.0,0.0,86,0.00,,,0.21,,2013-04-20 03:21:00,
2013-04-19 22:33:00,42.0,38.0,30.16,SW,221,0.0,0.0,85,0.00,,,0.21,,2013-04-20 03:33:00,
2013-04-19 22:43:00,42.0,38.0,30.16,SW,221,0.0,0.0,85,0.00,,,0.21,,2013-04-20 03:43:00,
2013-04-19 22:53:00,42.0,38.0,30.16,SW,221,0.0,0.0,84,0.00,,,0.21,,2013-04-20 03:53:00,
2013-04-19 23:03:00,41.0,37.0,30.15,SW,221,0.0,0.0,85,0.00,,,0.21,,2013-04-20 04:03:00,
2013-04-19 23:12:00,41.0,37.0,30.15,SW,221,0.0,0.0,85,0.00,,,0.21,,2013-04-20 04:12:00,
2013-04-19 23:23:00,42.0,39.0,30.16,SW,221,0.0,0.0,88,0.00,,,0.02,,2013-04-20 04:23:00,
2013-04-19 23:32:00,42.0,39.0,30.16,SW,221,0.0,0.0,88,0.00,,,0.02,,2013-04-20 04:32:00,
2013-04-19 23:42:00,42.0,39.0,30.16,SW,221,0.0,0.0,88,0.00,,,0.02,,2013-04-20 04:42:00,
2013-04-19 23:52:00,41.0,38.0,30.16,SW,221,0.0,0.0,88,0.00,,,0.02,,2013-04-20 04:52:00,